RH
28 12 5 12 29 39 35 26 21 22 25 26 27 28 30 30 32 34 35 37 39 40 41 42 43 44 45 46 46 48 50 52 53 54 54 54 53 51 50 50 48 45
41 21 8 7 20 36 41 33 25 23 25 28 28 28 30 31 31 33 36 38 40 42 43 44 44 45 46 47 48 50 53 55 56 55 55 57 57 54 52 52 50 48
55 32 14 6 12 28 41 41 33 26 24 27 29 29 30 31 31 32 34 36 40 43 45 46 47 47 47 48 49 51 53 56 58 57 55 57 59 58 56 53 52 50
65 44 23 10 8 19 35 44 42 33 26 26 28 30 30 30 31 32 32 34 36 40 43 46 48 49 50 50 51 52 54 56 57 57 55 56 59 61 60 57 55 52
73 56 35 17 9 13 24 39 47 42 33 27 27 29 31 31 31 32 32 33 34 36 39 41 45 48 49 50 50 52 54 56 57 56 54 55 58 62 63 60 57 55
78 66 48 27 14 11 16 28 43 49 43 35 29 28 30 31 31 31 32 33 34 35 36 38 41 44 45 46 46 48 51 53 54 53 52 54 58 62 66 64 61 58
81 74 59 38 22 14 13 19 33 46 49 44 36 30 28 30 31 31 32 33 34 35 36 37 39 42 43 43 43 46 48 50 51 50 51 54 58 63 68 68 64 63
83 78 67 50 34 20 14 15 24 38 49 50 45 38 32 29 29 31 32 33 34 35 36 37 38 40 43 43 43 45 47 48 48 48 50 54 59 65 69 70 67 66
85 80 73 61 46 29 18 14 17 28 41 50 51 47 41 35 31 31 32 33 34 35 36 37 38 39 41 42 43 45 47 48 47 46 48 54 60 67 71 72 69 68
90 83 76 67 55 40 26 17 15 20 32 45 52 53 49 44 38 34 33 34 34 35 37 38 38 39 41 42 43 44 46 47 46 44 45 52 61 69 73 72 70 70
97 88 79 72 62 48 33 22 17 17 24 37 49 54 55 52 47 41 37 36 35 36 38 38 40 41 41 42 43 44 47 48 47 43 43 51 61 69 74 72 71 72
100 94 84 76 66 55 41 28 20 17 19 29 42 52 56 56 55 50 45 41 39 39 39 40 42 42 42 43 45 46 48 49 47 43 43 50 61 70 74 73 72 74
101 98 91 82 72 61 49 35 24 17 17 24 36 47 55 58 59 58 54 50 46 43 43 44 46 46 45 46 48 49 50 50 48 44 44 51 61 70 75 73 73 76
100 100 97 89 78 68 55 40 28 19 16 20 28 40 51 58 60 61 61 59 55 51 50 50 50 50 50 51 53 54 52 51 49 47 47 53 62 71 76 75 74 77
99 100 100 95 85 74 60 45 33 23 17 16 22 31 43 53 59 61 61 62 62 60 58 57 56 56 57 59 60 59 56 54 52 50 52 56 63 71 77 77 76 77
98 99 101 98 91 81 67 52 39 28 19 15 18 25 34 45 54 59 61 62 64 65 65 64 63 62 64 66 66 64 62 60 58 56 57 59 63 72 78 78 76 75
99 99 101 100 95 88 75 58 43 33 23 16 16 21 29 37 44 52 59 63 64 66 67 68 69 69 70 71 70 69 68 67 65 63 63 65 67 72 77 77 75 74
100 99 100 100 98 93 81 64 48 37 27 18 16 19 25 31 36 42 53 64 67 67 67 69 72 74 76 76 75 74 73 72 71 69 68 72 74 74 75 76 74 74
101 100 100 100 100 97 86 70 52 40 30 22 18 19 21 26 33 38 46 59 68 70 69 71 73 77 81 82 81 80 78 76 76 74 73 78 80 77 78 79 77 77
101 100 100 100 100 99 91 75 57 43 34 25 19 18 19 24 31 36 42 53 65 72 72 72 76 81 84 85 84 83 83 82 80 78 77 80 80 78 79 82 83 84
100 100 100 100 100 100 95 81 64 49 39 29 22 18 18 22 28 35 41 49 61 70 73 74 79 85 87 86 84 85 87 87 84 82 81 80 78 75 76 80 84 87
100 100 100 100 100 101 99 87 70 55 44 34 25 20 17 19 26 33 40 47 56 66 73 78 83 88 89 87 85 87 91 91 87 86 85 81 77 75 75 77 81 84
101 100 100 100 100 100 101 92 75 59 47 37 28 22 18 19 24 31 38 45 54 66 74 79 84 89 89 88 88 90 94 94 91 90 88 84 80 78 78 81 84 85
101 101 100 101 100 100 101 96 79 61 48 39 31 24 18 17 19 26 36 45 54 66 75 79 85 90 90 89 90 94 97 96 94 93 91 87 83 81 83 88 90 90
101 101 100 100 100 100 101 98 85 66 50 40 33 26 19 15 16 22 33 44 53 65 75 80 85 92 93 92 94 98 100 100 98 96 93 88 85 87 91 93 94 94
101 101 100 100 100 99 101 100 90 72 53 42 35 28 21 15 14 18 28 40 51 62 74 82 88 93 95 95 98 102 103 103 100 96 92 88 88 93 97 97 96 98
Wind_Speed
39 38 37 35 34 34 34 33 33 32 30 29 28 27 26 25 24 23 23 23 22 21 21 21 20 20 20 20 21 21 21 22 23 24 25 26 27 29 30 31 33 34
39 38 37 36 34 34 35 34 34 33 31 30 29 28 27 26 25 24 24 24 23 23 22 22 22 22 22 21 21 22 22 23 24 25 26 26 27 28 30 31 32 33
38 38 37 36 35 34 35 35 34 34 33 32 31 30 29 28 27 26 25 25 24 24 24 24 24 24 23 23 23 23 23 24 26 27 27 27 27 28 29 30 32 32
37 37 36 36 35 34 34 35 35 35 34 34 33 32 31 30 29 28 26 26 25 25 25 25 25 25 25 25 25 25 25 26 27 28 28 28 28 29 29 30 31 31
36 37 36 35 35 34 34 35 35 35 35 35 35 34 33 32 31 30 28 27 27 26 26 26 26 27 27 27 26 26 26 26 27 28 29 28 29 30 29 29 30 30
36 36 36 35 34 34 34 33 34 36 36 36 36 36 35 34 33 32 31 29 29 28 28 27 27 28 28 28 28 27 27 27 28 28 28 28 29 30 30 30 29 29
36 35 35 35 34 34 33 33 33 35 36 37 38 38 37 37 35 34 33 32 31 30 29 29 29 29 29 30 29 28 27 27 28 28 28 28 28 30 30 30 29 28
36 35 35 35 34 34 33 33 33 33 35 37 38 38 39 39 38 37 36 34 33 32 32 31 31 30 30 31 30 29 29 28 28 29 29 27 27 29 31 31 29 26
38 35 34 34 34 34 33 33 33 33 34 36 37 38 39 40 40 39 38 37 35 34 34 33 32 32 32 32 31 31 30 30 29 29 29 28 27 28 31 31 29 26
40 37 35 34 34 34 33 33 33 33 33 35 36 38 39 40 40 40 40 39 38 36 35 34 34 33 33 33 33 32 31 31 31 30 29 28 27 28 30 31 29 26
43 40 37 35 34 34 33 33 33 33 33 34 35 37 38 39 41 41 41 41 39 38 37 36 35 34 34 34 33 33 32 32 32 30 29 28 27 28 30 30 28 26
44 43 39 36 35 34 34 33 33 33 33 33 34 35 37 38 40 40 41 41 40 39 38 37 35 35 34 34 34 33 33 33 33 31 29 28 27 28 29 29 27 26
44 44 42 38 35 35 35 34 33 33 33 33 33 34 36 37 38 39 40 41 40 40 38 37 36 35 35 35 34 33 33 34 33 31 29 28 27 27 28 27 26 25
43 44 43 40 37 36 35 34 34 33 33 33 33 33 34 36 37 38 39 40 40 39 39 37 36 35 34 34 34 33 34 34 33 30 28 28 28 27 26 26 25 24
42 43 43 41 39 37 36 35 35 34 34 33 33 33 33 34 36 37 38 39 38 38 38 37 36 35 34 34 34 34 34 34 33 30 28 27 27 27 26 25 25 24
41 41 42 42 40 37 36 36 35 34 34 34 33 32 33 33 34 35 37 37 37 37 37 37 35 34 34 34 34 34 34 34 32 29 28 28 27 26 25 25 25 24
40 40 42 42 40 38 37 37 36 35 34 34 33 32 32 33 33 34 34 35 36 36 36 36 34 33 33 34 34 34 34 33 31 29 28 28 27 26 25 25 25 25
40 40 41 41 40 38 37 37 36 35 35 34 34 33 32 32 32 32 33 33 35 35 35 34 33 32 33 33 34 34 35 33 30 28 28 28 27 26 25 24 25 24
40 40 40 41 40 39 37 37 36 35 35 35 34 33 32 31 31 31 31 32 33 33 33 33 32 32 32 32 33 33 34 34 31 28 28 28 28 26 24 23 23 23
41 40 39 40 39 39 38 36 35 35 35 35 35 33 32 31 30 30 30 31 31 31 32 31 31 31 31 31 32 32 33 33 31 29 28 29 27 25 23 22 21 22
41 40 39 39 38 38 38 36 35 35 35 35 35 33 32 31 30 30 29 29 30 30 30 30 30 31 31 31 31 31 32 32 31 29 29 30 27 23 22 21 20 22
42 40 38 37 37 38 37 35 35 35 34 34 34 33 31 30 29 29 29 28 29 29 28 28 29 30 31 30 30 30 31 32 31 29 30 30 26 22 21 19 17 19
43 40 37 36 36 37 37 35 34 34 34 34 33 32 31 30 29 28 28 27 27 28 27 27 28 30 30 30 29 30 31 31 30 30 31 30 25 21 20 17 14 15
43 38 36 35 35 36 36 35 34 33 33 33 33 31 30 29 28 28 27 27 26 26 26 26 26 29 29 28 28 29 30 30 30 30 31 30 23 19 18 16 15 15
42 37 35 35 35 35 36 35 34 33 32 32 32 31 30 28 27 27 26 26 25 25 25 25 25 27 28 28 27 28 29 30 30 31 31 28 22 18 17 18 17 16
40 36 34 34 34 35 35 35 34 32 31 32 31 30 29 28 27 26 25 25 25 24 24 23 24 25 27 27 26 28 29 30 31 32 31 26 20 17 18 19 18 18
Wind_Direction
316 313 309 302 293 286 284 282 281 280 281 282 284 285 286 287 287 287 288 288 288 287 286 286 286 285 285 286 287 290 292 294 296 296 296 297 296 294 292 288 284 279
316 313 310 305 296 288 282 280 278 277 277 277 279 281 283 284 284 284 284 284 284 284 283 283 283 284 284 285 286 288 291 293 295 296 296 297 297 295 294 292 289 285
315 313 310 306 299 290 282 279 276 275 273 273 275 277 278 280 281 281 281 281 281 281 281 281 281 282 282 283 284 285 288 290 292 295 296 297 297 296 295 294 292 289
314 312 310 306 301 294 285 279 276 274 271 270 270 272 274 276 277 278 278 278 278 277 278 279 279 280 281 282 283 284 285 287 289 292 294 296 297 296 296 296 294 292
313 311 309 306 302 297 289 282 277 273 271 269 268 268 269 271 273 275 276 276 276 276 276 277 278 279 280 280 282 283 284 286 288 290 292 295 295 296 297 296 295 295
312 309 308 306 302 298 293 286 279 274 271 268 267 266 266 267 269 271 272 273 274 274 275 275 276 277 279 280 281 283 284 286 288 289 291 293 294 295 297 297 296 296
310 308 307 305 303 300 296 290 283 276 272 268 266 265 265 265 266 267 269 270 271 272 273 273 274 275 277 280 282 284 285 286 288 289 291 292 293 294 296 296 295 296
309 307 305 304 303 301 297 293 287 280 273 269 267 266 264 264 264 265 266 267 269 270 271 272 273 274 275 278 281 283 285 286 288 289 291 292 292 293 294 295 295 295
308 306 304 303 302 301 299 295 290 284 277 272 268 266 265 264 263 263 264 265 266 268 269 270 272 273 274 276 278 280 282 284 287 288 290 291 290 291 292 294 294 293
306 304 302 302 301 300 299 296 292 287 282 276 271 267 265 264 263 263 263 264 264 266 267 269 270 272 273 275 277 278 280 282 284 286 288 289 289 289 290 292 293 292
304 303 301 301 300 299 298 296 293 289 284 279 274 269 267 265 264 263 263 263 264 264 265 266 268 269 271 273 275 276 278 279 281 283 286 287 287 287 289 291 292 290
303 302 300 299 299 297 296 295 293 290 286 282 277 272 268 266 264 264 263 263 263 263 264 265 265 267 269 271 272 274 275 276 278 280 283 284 284 285 287 289 290 288
303 300 300 299 297 295 295 294 293 290 287 283 279 275 271 268 266 265 263 263 263 263 263 263 264 264 265 267 269 271 272 274 276 278 279 280 281 282 284 286 287 285
303 300 299 298 296 294 294 293 291 290 287 284 280 278 274 270 267 265 264 263 263 262 262 262 262 262 263 264 266 267 269 270 273 275 276 277 278 279 281 282 282 282
303 301 299 297 295 294 292 291 290 289 287 285 281 279 276 272 268 266 264 264 263 263 262 261 261 260 261 261 262 263 265 267 270 272 272 273 274 276 278 278 277 277
302 301 298 295 293 293 291 290 290 288 287 285 283 280 277 274 271 268 265 264 263 263 262 261 261 260 259 259 259 260 262 264 267 269 269 269 270 272 274 274 274 272
302 300 298 295 292 291 290 289 288 288 287 286 284 281 278 275 273 271 268 265 263 262 262 262 261 260 258 257 257 258 260 262 264 265 266 266 267 268 270 272 273 271
300 299 297 295 291 289 288 287 287 288 287 286 284 281 278 277 275 274 270 266 264 262 261 261 261 259 258 257 256 257 259 260 261 261 262 264 265 266 269 271 273 273
298 298 297 295 291 288 286 285 286 287 286 285 284 282 280 279 277 275 272 269 265 263 261 261 260 259 258 257 256 256 256 259 259 258 258 260 262 266 269 271 273 273
296 296 296 295 291 287 285 284 284 285 285 284 284 283 282 280 278 275 273 270 266 263 261 260 259 259 258 256 255 255 255 256 257 256 256 256 258 262 265 266 266 267
293 294 295 296 292 286 283 283 283 283 284 284 284 284 283 281 278 276 273 270 267 264 261 260 259 258 257 256 255 254 253 253 254 254 254 255 257 259 259 259 259 258
291 292 294 296 292 285 282 281 280 281 282 283 284 284 283 281 278 275 273 270 267 264 261 259 257 256 256 255 255 253 251 250 252 252 253 255 257 257 257 259 258 254
289 291 293 295 291 285 281 279 277 278 279 281 282 283 283 281 278 275 273 270 267 264 261 258 255 255 255 254 254 252 249 248 249 250 252 255 257 256 257 261 261 255
289 290 292 294 290 285 280 277 275 276 277 279 280 282 282 280 278 275 273 271 268 263 260 257 254 254 255 254 253 250 247 246 246 247 251 255 256 256 257 261 260 257
289 289 291 293 291 285 280 276 275 275 275 278 279 281 281 280 278 276 273 271 267 263 260 256 253 253 254 253 252 249 245 244 244 245 249 253 255 254 256 258 257 256
288 287 290 292 291 286 280 276 275 274 274 276 278 280 281 281 279 276 273 271 268 264 260 257 252 252 253 252 250 246 242 241 242 244 248 251 253 253 253 254 253 253